Location: Winter Haven
(28.0220°N, 81.7330°W)
Time: 14:45:16
(UTC-04:00)

Amateur Radio Satellites - All Passes

Search period start: 25 July 2017 14:15
Search period end: 26 July 2017 14:15
Location: Winter Haven, 28.0220°N, 81.7330°W

Satellite Date Start Highest point End Downlink Frequencies (MHz)
Time Altitude Azimuth
Oscar 19 25 Jul 14:17:34 14:22:40 84° 77° (ENE) 14:27:48 437.125/150
UKube-1 25 Jul 14:20:58 14:24:41 28° 98° (E) 14:28:22 .
SPROUT 25 Jul 14:22:58 14:26:44 31° 286° (WNW) 14:30:28 437.525
AO-7 25 Jul 14:33:48 14:38:29 16° 58° (ENE) 14:43:08 .
Gurwin Techsat 1B 25 Jul 14:46:12 14:51:30 82° 258° (WSW) 14:56:50 435.225
O/OREOS (USA 219) 25 Jul 15:03:56 15:07:47 28° 103° (ESE) 15:11:37 437.305
PCSat 25 Jul 15:08:04 15:13:13 43° 63° (ENE) 15:18:19 145.827
VELOX 1 25 Jul 15:13:02 15:14:19 11° 292° (WNW) 15:15:37 145.980
SO-50 25 Jul 15:13:48 15:14:39 10° 52° (NE) 15:15:30 436.795
DX 1 25 Jul 15:14:48 15:18:48 35° 287° (WNW) 15:22:46 434.975-435.025
50 SAT 25 Jul 15:21:00 15:22:30 12° 289° (WNW) 15:24:00 437.505
UKube-1 25 Jul 15:57:34 16:00:26 18° 290° (WNW) 16:03:18 .
BEESAT 25 Jul 16:02:26 16:06:48 36° 99° (E) 16:11:08 436.000
ITAMSAT 1 25 Jul 16:09:47 16:14:59 71° 75° (ENE) 16:20:11 435.822/435.867
RS-15 25 Jul 16:12:25 16:24:26 81° 113° (ESE) 16:36:50 29.354- 29.394
ITUPSAT 1 25 Jul 16:15:44 16:20:21 51° 101° (E) 16:24:58 437.325
AO-7 25 Jul 16:21:48 16:30:09 85° 253° (WSW) 16:38:34 .
O/OREOS (USA 219) 25 Jul 16:44:05 16:47:07 18° 295° (WNW) 16:50:11 437.305
SO-50 25 Jul 16:50:56 16:55:27 65° 245° (WSW) 17:00:00 436.795
PCSat 25 Jul 16:52:41 16:56:11 18° 255° (WSW) 16:59:40 145.827
MOZHAYETS 4 25 Jul 16:59:17 17:03:47 61° 284° (WNW) 17:08:16
CUBESAT XI-V 25 Jul 17:34:59 17:39:35 53° 100° (E) 17:44:09 437.345
KKS-1 25 Jul 17:37:31 17:41:17 26° 98° (E) 17:45:00 437.445
BEESAT 25 Jul 17:41:18 17:44:12 16° 291° (WNW) 17:47:07 436.000
LilacSat-2 25 Jul 17:54:15 17:55:07 11° 70° (ENE) 17:55:59 437.200
ITUPSAT 1 25 Jul 17:56:00 17:57:40 12° 293° (WNW) 17:59:19 437.325
CUTE-I 25 Jul 18:02:33 18:06:03 18° 68° (ENE) 18:09:34 437.470
YUBILEINY 25 Jul 18:03:14 18:08:19 17° 82° (E) 18:13:23 435.215
STARS 25 Jul 18:06:12 18:09:35 21° 97° (E) 18:12:55 437.465
XW-2F 25 Jul 18:06:32 18:08:32 14° 72° (ENE) 18:10:34 145.980 - 146.000
DOVE 4 25 Jul 18:12:49 18:17:32 70° 76° (ENE) 18:22:33 437.250
AO-7 25 Jul 18:21:18 18:23:36 11° 266° (W) 18:25:55 .
RS-15 25 Jul 18:28:34 18:38:13 26° 313° (NW) 18:48:03 29.354- 29.394
XW-2D 25 Jul 18:34:01 18:37:31 38° 76° (ENE) 18:41:01 145.860 - 145.880
XW-2B 25 Jul 18:43:55 18:47:34 51° 77° (ENE) 18:51:13 145.730 - 145.750
Tancredo 1 25 Jul 18:49:48 18:51:39 16° 126° (SE) 18:53:31 437.200
HO-68 25 Jul 18:54:07 18:59:26 23° 65° (ENE) 19:04:45 435.675
XW-2C 25 Jul 19:01:11 19:04:56 83° 261° (W) 19:08:41 145.795 - 145.815
NUDT-PHONESAT 25 Jul 19:06:46 19:10:27 82° 76° (ENE) 19:14:08 437.300
KKS-1 25 Jul 19:14:24 19:17:35 19° 290° (WNW) 19:20:45 437.445
CUBESAT XI-V 25 Jul 19:15:13 19:16:24 11° 292° (WNW) 19:17:36 437.345
nSIGHT-1 25 Jul 19:17:44 19:18:25 11° 125° (SE) 19:19:07 .
CUBEBUG 2 25 Jul 19:21:59 19:23:26 11° 69° (ENE) 19:24:54 437.445
KAITUO 1B 25 Jul 19:22:04 19:25:41 54° 260° (W) 19:29:19 145.475/437.950
LilacSat-2 25 Jul 19:25:36 19:29:01 32° 262° (W) 19:32:26 437.200
NO-84 25 Jul 19:29:35 19:33:30 49° 50° (NE) 19:37:38 435.350 FM
CUTE 1.7 + AOD 2 25 Jul 19:34:06 19:37:44 30° 74° (ENE) 19:41:25 437.475
XW-2F 25 Jul 19:39:21 19:42:24 24° 263° (W) 19:45:28 145.980 - 146.000
CUTE-I 25 Jul 19:40:39 19:45:41 42° 260° (W) 19:50:47 437.470
STARS 25 Jul 19:42:19 19:45:45 23° 289° (WNW) 19:49:10 437.465
SEEDS 25 Jul 19:45:30 19:48:51 24° 73° (ENE) 19:52:14 437.485
YUBILEINY 25 Jul 19:55:17 20:04:05 74° 276° (W) 20:12:56 435.215
ISS 25 Jul 20:09:44 20:12:53 51° 130° (SE) 20:16:03 437.550
XW-2A 25 Jul 20:15:28 20:18:49 61° 77° (ENE) 20:22:10 145.665 - 145.685
UWE-3 25 Jul 20:16:06 20:20:01 28° 73° (ENE) 20:23:53 435.000/436.395/437.385
Tancredo 1 25 Jul 20:24:34 20:26:53 21° 318° (NW) 20:29:13 437.200
AAUSAT CUBESAT 2 25 Jul 20:26:51 20:30:32 33° 74° (ENE) 20:34:14 437.432
ZACube-1 25 Jul 20:29:09 20:32:26 20° 72° (ENE) 20:35:41 437.345
STRAND 1 25 Jul 20:37:21 20:42:24 61° 101° (ESE) 20:47:24 437.568
HO-68 25 Jul 20:39:41 20:46:38 53° 258° (WSW) 20:53:37 435.675
nSIGHT-1 25 Jul 20:51:27 20:54:30 38° 316° (NW) 20:57:32 .
Oscar 11 25 Jul 20:53:52 20:57:23 25° 73° (ENE) 21:00:55 .
CUBEBUG 2 25 Jul 20:54:57 20:59:33 52° 260° (W) 21:04:06 437.445
AO-73 25 Jul 21:07:46 21:12:07 54° 76° (ENE) 21:16:24 145.935
NO-84 25 Jul 21:08:40 21:10:44 13° 239° (WSW) 21:12:50 435.350 FM
CUTE 1.7 + AOD 2 25 Jul 21:11:15 21:13:33 14° 265° (W) 21:15:52 437.475
SEEDS 25 Jul 21:21:39 21:24:26 17° 264° (W) 21:27:14 437.485
JUGNU 25 Jul 21:24:41 21:27:48 14° 160° (SSE) 21:30:55 437.505
DELFI C3 25 Jul 21:25:49 21:27:04 11° 70° (ENE) 21:28:19 145.870
ISS 25 Jul 21:48:34 21:49:33 11° 324° (NW) 21:50:32 437.550
UWE-3 25 Jul 21:53:06 21:56:22 19° 264° (W) 21:59:36 435.000/436.395/437.385
AAUSAT CUBESAT 2 25 Jul 22:04:22 22:06:00 12° 266° (W) 22:07:39 437.432
ZACube-1 25 Jul 22:04:48 22:08:30 25° 263° (W) 22:12:08 437.345
FO-29 25 Jul 22:06:09 22:11:41 27° 94° (E) 22:16:40 435.910
STRAND 1 25 Jul 22:19:27 22:20:59 11° 294° (WNW) 22:22:30 437.568
AO-85 25 Jul 22:22:57 22:27:04 41° 61° (ENE) 22:31:29 145.980
TIGRISAT 25 Jul 22:25:15 22:27:31 14° 95° (E) 22:29:45 435.000
Oscar 11 25 Jul 22:30:25 22:33:25 18° 264° (W) 22:36:25 .
BEESAT 3 25 Jul 22:45:45 22:49:42 73° 63° (ENE) 22:53:35 437.485
DELFI C3 25 Jul 22:57:52 23:01:26 34° 262° (W) 23:05:02 145.870
PRISM 25 Jul 22:59:46 23:03:36 35° 99° (E) 23:07:24 437.425
JUGNU 25 Jul 23:11:17 23:16:20 29° 168° (SSE) 23:21:25 437.505
EO-88 25 Jul 23:14:05 23:17:21 31° 262° (W) 23:20:38 145.990 - 145.960
UNISAT 6 25 Jul 23:15:58 23:20:16 76° 103° (ESE) 23:24:29 437.425
LO-87 25 Jul 23:16:21 23:19:04 20° 73° (ENE) 23:21:49 145.935 - 145.965
RS-15 25 Jul 23:16:22 23:19:33 11° 29° (NNE) 23:22:41 29.354- 29.394
BEESAT 2 25 Jul 23:27:13 23:31:14 67° 62° (ENE) 23:35:11 435.950
ESTCUBE 1 25 Jul 23:42:22 23:46:15 30° 73° (ENE) 23:50:08 437.505/2401.250
FO-29 25 Jul 23:50:38 23:56:43 35° 291° (WNW) 00:02:09 435.910
M-CUBED/EXP-1 PRIME 25 Jul 23:51:26 23:56:04 62° 105° (ESE) 00:00:38 437.505
AIST 2D 25 Jul 23:56:32 23:58:59 18° 96° (E) 00:01:27 435.315
TIGRISAT 26 Jul 00:00:26 00:04:12 31° 287° (WNW) 00:07:57 435.000
AO-85 26 Jul 00:04:54 00:07:11 14° 250° (WSW) 00:09:32 145.980
SRMSAT 26 Jul 00:15:20 00:18:35 15° 161° (SSE) 00:21:50 437.500
VELOX 1 26 Jul 00:25:26 00:28:24 18° 70° (ENE) 00:31:23 145.980
PRISM 26 Jul 00:36:37 00:38:29 13° 291° (WNW) 00:40:21 437.425
LO-87 26 Jul 00:50:10 00:52:22 15° 264° (W) 00:54:35 145.935 - 145.965
JUGNU 26 Jul 00:59:29 01:05:00 38° 178° (S) 01:10:30 437.505
DUCHIFAT 1 26 Jul 01:01:55 01:05:53 42° 100° (E) 01:09:50 145.980
POLYITAN 1 26 Jul 01:05:34 01:09:43 64° 101° (E) 01:13:51 437.675
SPROUT 26 Jul 01:08:24 01:12:40 76° 78° (ENE) 01:16:58 437.525
QB50P2 26 Jul 01:18:39 01:22:50 75° 283° (WNW) 01:27:01 145.880/145.840
ESTCUBE 1 26 Jul 01:20:08 01:23:00 17° 264° (W) 01:25:52 437.505/2401.250
O/OREOS (USA 219) 26 Jul 01:21:09 01:24:19 19° 65° (ENE) 01:27:29 437.305
RS-15 26 Jul 01:24:33 01:36:01 49° 57° (ENE) 01:46:50 29.354- 29.394
BUGSAT 1 26 Jul 01:28:02 01:31:05 20° 97° (E) 01:34:05 437.445
M-CUBED/EXP-1 PRIME 26 Jul 01:28:51 01:29:52 11° 297° (WNW) 01:30:53 437.505
AIST 2D 26 Jul 01:29:49 01:32:00 16° 287° (WNW) 01:34:10 435.315
NANOSAT C BR1 26 Jul 01:29:51 01:34:00 67° 284° (WNW) 01:38:08 145.865
EO-79 26 Jul 01:30:26 01:34:34 57° 284° (WNW) 01:38:39 145.935-145.965
50 SAT 26 Jul 01:43:33 01:46:54 66° 76° (ENE) 01:50:16 437.505
VELOX 1 26 Jul 02:00:47 02:04:34 28° 262° (W) 02:08:23 145.980
SRMSAT 26 Jul 02:02:13 02:07:17 29° 169° (SSE) 02:12:19 437.500
DX 1 26 Jul 02:02:38 02:06:59 78° 76° (ENE) 02:11:21 434.975-435.025
Oscar 19 26 Jul 02:36:09 02:41:12 53° 100° (E) 02:46:15 437.125/150
DUCHIFAT 1 26 Jul 02:40:21 02:41:06 10° 291° (WNW) 02:41:51 145.980
UKube-1 26 Jul 02:43:33 02:47:43 49° 259° (W) 02:51:55 .
JUGNU 26 Jul 02:48:21 02:53:41 33° 188° (S) 02:58:59 437.505
O/OREOS (USA 219) 26 Jul 02:59:50 03:03:39 27° 257° (WSW) 03:07:27 437.305
BEESAT 26 Jul 03:02:45 03:06:10 20° 70° (ENE) 03:09:35 436.000
BUGSAT 1 26 Jul 03:03:17 03:06:15 20° 289° (WNW) 03:09:12 437.445
Gurwin Techsat 1B 26 Jul 03:09:30 03:14:49 73° 102° (ESE) 03:20:06 435.225
ITUPSAT 1 26 Jul 03:15:57 03:19:58 27° 72° (ENE) 03:24:00 437.325
RS-15 26 Jul 03:37:32 03:48:01 40° 254° (WSW) 03:58:05 29.354- 29.394
SRMSAT 26 Jul 03:50:37 03:56:04 38° 179° (S) 04:01:31 437.500
MOZHAYETS 4 26 Jul 03:53:52 03:58:20 54° 76° (ENE) 04:02:47
PCSat 26 Jul 04:01:52 04:04:46 15° 104° (ESE) 04:07:41 145.827
Oscar 19 26 Jul 04:17:34 04:20:00 13° 293° (WNW) 04:22:25 437.125/150
ISS 26 Jul 04:19:22 04:22:12 27° 42° (NE) 04:25:01 437.550
Tancredo 1 26 Jul 04:27:48 04:30:40 50° 230° (SW) 04:33:33 437.200
ITAMSAT 1 26 Jul 04:29:53 04:34:50 44° 100° (E) 04:39:45 435.822/435.867
KKS-1 26 Jul 04:31:14 04:32:24 11° 68° (ENE) 04:33:32 437.445
AO-7 26 Jul 04:31:34 04:39:39 52° 103° (ESE) 04:47:39 .
CUBESAT XI-V 26 Jul 04:32:02 04:35:37 23° 72° (ENE) 04:39:13 437.345
JUGNU 26 Jul 04:38:06 04:42:15 20° 197° (SSW) 04:46:24 437.505
BEESAT 26 Jul 04:39:30 04:43:41 30° 262° (W) 04:47:51 436.000
ITUPSAT 1 26 Jul 04:54:02 04:57:40 22° 263° (W) 05:01:19 437.325
nSIGHT-1 26 Jul 05:00:16 05:03:30 83° 228° (SW) 05:06:42 .
SO-50 26 Jul 05:20:15 05:22:46 15° 109° (ESE) 05:25:15 436.795
SRMSAT 26 Jul 05:39:39 05:44:53 33° 189° (S) 05:50:06 437.500
PCSat 26 Jul 05:42:25 05:47:39 50° 296° (WNW) 05:52:56 145.827
ISS 26 Jul 05:56:23 05:58:28 16° 234° (SW) 06:00:32 437.550
KKS-1 26 Jul 06:04:08 06:08:26 49° 260° (W) 06:12:47 437.445
CUBESAT XI-V 26 Jul 06:09:11 06:12:49 23° 263° (W) 06:16:28 437.345
ITAMSAT 1 26 Jul 06:10:47 06:13:51 16° 292° (WNW) 06:16:55 435.822/435.867
YUBILEINY 26 Jul 06:14:40 06:22:47 41° 79° (E) 06:30:48 435.215
DOVE 4 26 Jul 06:19:05 06:23:48 35° 97° (E) 06:28:18 437.250
AO-7 26 Jul 06:25:10 06:31:54 28° 297° (WNW) 06:38:37 .
CUTE-I 26 Jul 06:27:39 06:29:31 12° 94° (E) 06:31:22 437.470
STARS 26 Jul 06:30:42 06:35:05 63° 259° (W) 06:39:28 437.465
XW-2C 26 Jul 06:41:28 06:43:55 17° 96° (E) 06:46:23 145.795 - 145.815
NUDT-PHONESAT 26 Jul 06:45:29 06:47:08 13° 95° (E) 06:48:48 437.300
SO-50 26 Jul 06:58:36 07:02:51 38° 300° (WNW) 07:07:04 436.795
KAITUO 1B 26 Jul 07:00:21 07:03:18 22° 97° (E) 07:06:14 145.475/437.950
LilacSat-2 26 Jul 07:05:09 07:08:43 39° 99° (E) 07:12:17 437.200
XW-2F 26 Jul 07:17:19 07:20:59 52° 100° (E) 07:24:39 145.980 - 146.000
SRMSAT 26 Jul 07:29:36 07:33:36 19° 197° (SSW) 07:37:35 437.500
STRAND 1 26 Jul 07:46:19 07:51:08 42° 73° (ENE) 07:55:58 437.568
XW-2D 26 Jul 07:46:55 07:50:34 48° 284° (WNW) 07:54:13 145.860 - 145.880
XW-2B 26 Jul 07:57:10 08:00:38 36° 285° (WNW) 08:04:07 145.730 - 145.750
DOVE 4 26 Jul 07:57:29 08:01:06 20° 291° (WNW) 08:04:38 437.250
CUTE-I 26 Jul 08:04:33 08:09:47 59° 286° (WNW) 08:15:00 437.470
YUBILEINY 26 Jul 08:11:48 08:19:13 33° 273° (W) 08:26:37 435.215
HO-68 26 Jul 08:14:57 08:21:46 46° 101° (E) 08:28:32 435.675
XW-2C 26 Jul 08:15:08 08:17:58 21° 287° (WNW) 08:20:49 145.795 - 145.815
NUDT-PHONESAT 26 Jul 08:17:55 08:20:58 25° 286° (WNW) 08:24:02 437.300
KAITUO 1B 26 Jul 08:34:50 08:37:03 15° 288° (WNW) 08:39:17 145.475/437.950
CUBEBUG 2 26 Jul 08:52:53 08:56:59 55° 100° (E) 09:01:02 437.445
CUTE 1.7 + AOD 2 26 Jul 09:00:46 09:04:52 49° 284° (WNW) 09:08:59 437.475
AO-73 26 Jul 09:03:44 09:06:22 16° 96° (E) 09:09:01 145.935
SEEDS 26 Jul 09:10:32 09:14:43 63° 283° (WNW) 09:18:54 437.485
XW-2A 26 Jul 09:16:27 09:19:36 40° 284° (WNW) 09:22:43 145.665 - 145.685
STRAND 1 26 Jul 09:27:17 09:30:23 16° 265° (W) 09:33:28 437.568
UWE-3 26 Jul 09:48:21 09:52:22 49° 284° (WNW) 09:56:20 435.000/436.395/437.385
AAUSAT CUBESAT 2 26 Jul 09:50:30 09:54:30 46° 284° (WNW) 09:58:30 437.432
FO-29 26 Jul 09:51:50 09:59:00 51° 72° (ENE) 10:06:32 435.910
ZACube-1 26 Jul 09:59:05 10:03:13 74° 283° (WNW) 10:07:20 437.345
HO-68 26 Jul 10:03:26 10:09:04 26° 294° (WNW) 10:14:42 435.675
UNISAT 6 26 Jul 10:07:47 10:11:47 29° 73° (ENE) 10:15:44 437.425
Oscar 11 26 Jul 10:22:55 10:27:10 58° 284° (WNW) 10:31:24 .
M-CUBED/EXP-1 PRIME 26 Jul 10:31:53 10:34:31 20° 66° (ENE) 10:37:17 437.505
AO-73 26 Jul 10:39:09 10:42:31 25° 287° (WNW) 10:45:55 145.935
DELFI C3 26 Jul 10:41:10 10:45:01 45° 99° (E) 10:48:52 145.870
NO-84 26 Jul 10:41:20 10:44:12 70° 308° (NW) 10:47:13 435.350 FM
EO-88 26 Jul 10:49:18 10:52:35 32° 98° (E) 10:55:51 145.990 - 145.960
TIGRISAT 26 Jul 10:50:52 10:55:33 89° 70° (ENE) 11:00:10 435.000
PRISM 26 Jul 11:16:44 11:20:37 43° 260° (W) 11:24:32 437.425
FO-29 26 Jul 11:38:08 11:44:06 26° 266° (W) 11:50:22 435.910
ESTCUBE 1 26 Jul 11:43:46 11:45:05 11° 94° (E) 11:46:24 437.505/2401.250
UNISAT 6 26 Jul 11:45:04 11:48:23 19° 264° (W) 11:51:41 437.425
DUCHIFAT 1 26 Jul 11:48:28 11:50:32 13° 70° (ENE) 11:52:35 145.980
POLYITAN 1 26 Jul 11:51:57 11:55:02 20° 71° (ENE) 11:58:06 437.675
AIST 2D 26 Jul 11:55:53 11:59:17 53° 77° (ENE) 12:02:41 435.315
QB50P2 26 Jul 12:04:19 12:08:05 31° 74° (ENE) 12:11:51 145.880/145.840
M-CUBED/EXP-1 PRIME 26 Jul 12:06:29 12:08:50 17° 261° (W) 12:11:18 437.505
NANOSAT C BR1 26 Jul 12:14:52 12:18:42 33° 74° (ENE) 12:22:32 145.865
EO-79 26 Jul 12:15:37 12:19:35 39° 74° (ENE) 12:23:33 145.935-145.965
LO-87 26 Jul 12:22:14 12:25:48 68° 100° (E) 12:29:19 145.935 - 145.965
BEESAT 3 26 Jul 12:28:25 12:32:20 67° 114° (ESE) 12:36:18 437.485
AO-85 26 Jul 12:30:57 12:35:02 72° 115° (ESE) 12:38:59 145.980
SPROUT 26 Jul 13:01:40 13:04:56 21° 97° (E) 13:08:11 437.525
BEESAT 2 26 Jul 13:11:31 13:15:24 64° 114° (ESE) 13:19:23 435.950
ESTCUBE 1 26 Jul 13:17:40 13:22:00 45° 285° (WNW) 13:26:19 437.505/2401.250
DUCHIFAT 1 26 Jul 13:21:57 13:25:49 35° 261° (W) 13:29:43 145.980
POLYITAN 1 26 Jul 13:27:08 13:30:36 24° 263° (W) 13:34:03 437.675
QB50P2 26 Jul 13:41:27 13:43:50 15° 265° (W) 13:46:14 145.880/145.840
BUGSAT 1 26 Jul 13:44:24 13:48:38 78° 260° (W) 13:52:52 437.445
Oscar 19 26 Jul 13:46:18 13:50:58 37° 73° (ENE) 13:55:40 437.125/150
NANOSAT C BR1 26 Jul 13:52:20 13:54:25 13° 265° (W) 13:56:30 145.865
EO-79 26 Jul 13:53:57 13:55:24 11° 266° (W) 13:56:51 145.935-145.965
VELOX 1 26 Jul 13:56:48 14:01:17 87° 278° (W) 14:05:42 145.980
DX 1 26 Jul 13:58:17 14:01:47 23° 97° (E) 14:05:15 434.975-435.025
